| time (UTC) | temp F | wind direction | speed MPH | gust MPH | rain 1hr in | rain 24hr in | rain mn in | humidity % | barometer mb |
| 20260902155200 | 77 | 108 | 4.0 | 4.0 | 0.00 | 0.00 | 0.11 | 92 | 1016.4 |
| 20260902154701 | 77 | 135 | 3.0 | 4.0 | 0.00 | 0.00 | 0.11 | 93 | 1016.4 |
| 20260902154200 | 77 | 141 | 3.0 | 4.0 | 0.00 | 0.00 | 0.11 | 93 | 1016.4 |
| 20260902153701 | 77 | 137 | 2.0 | 3.0 | 0.00 | 0.00 | 0.11 | 93 | 1016.4 |
| 20260902153201 | 76 | 137 | 2.0 | 2.0 | 0.00 | 0.00 | 0.11 | 93 | 1016.3 |
| 20260902152701 | 76 | 132 | 2.0 | 2.0 | 0.01 | 0.00 | 0.11 | 93 | 1016.2 |
| 20260902152202 | 76 | 128 | 2.0 | 2.0 | 0.01 | 0.00 | 0.11 | 93 | 1016.3 |
| 20260902151700 | 76 | 120 | 3.0 | 4.0 | 0.02 | 0.00 | 0.12 | 93 | 1016.2 |
| 20260902151200 | 76 | 107 | 2.0 | 3.0 | 0.02 | 0.00 | 0.12 | 94 | 1016.2 |
| 20260902150701 | 76 | 115 | 2.0 | 4.0 | 0.02 | 0.00 | 0.12 | 94 | 1016.0 |
| 20260902145719 | 76 | 97 | 2.0 | 3.0 | 0.02 | 0.00 | 0.12 | 94 | 1015.9 |
| 20260902145200 | 76 | 116 | 2.0 | 3.0 | 0.02 | 0.00 | 0.12 | 93 | 1015.8 |
| 20260902144706 | 76 | 107 | 1.0 | 2.0 | 0.05 | 0.00 | 0.12 | 93 | 1015.8 |
| 20260902144200 | 76 | 112 | 2.0 | 4.0 | 0.05 | 0.00 | 0.12 | 93 | 1015.8 |
| 20260902143701 | 75 | 162 | 4.0 | 6.0 | 0.07 | 0.00 | 0.12 | 93 | 1015.8 |
| 20260902143201 | 75 | 159 | 4.0 | 6.0 | 0.11 | 0.00 | 0.11 | 93 | 1015.8 |
| 20260902142704 | 75 | 94 | 2.0 | 3.0 | 0.11 | 0.00 | 0.11 | 93 | 1015.8 |
| 20260902142200 | 75 | 132 | 2.0 | 3.0 | 0.11 | 0.00 | 0.11 | 93 | 1015.9 |
| 20260902141701 | 75 | 163 | 4.0 | 6.0 | 0.10 | 0.00 | 0.12 | 93 | 1016.0 |
| 20260902141201 | 75 | 157 | 2.0 | 6.0 | 0.10 | 0.00 | 0.11 | 93 | 1015.9 |
| 20260902140701 | 75 | 176 | 5.0 | 8.0 | 0.10 | 0.00 | 0.10 | 92 | 1015.9 |
| 20260902140200 | 75 | 144 | 5.0 | 6.0 | 0.10 | 0.00 | 0.10 | 92 | 1015.9 |
| 20260902135700 | 75 | 154 | 5.0 | 7.0 | 0.10 | 0.00 | 0.10 | 92 | 1015.9 |
| 20260902135202 | 76 | 157 | 3.0 | 4.0 | 0.07 | 0.00 | 0.10 | 91 | 1015.8 |
| 20260902134701 | 76 | 181 | 3.0 | 5.0 | 0.07 | 0.00 | 0.08 | 91 | 1015.8 |
| 20260902134200 | 76 | 179 | 7.0 | 10.0 | 0.06 | 0.00 | 0.07 | 90 | 1015.7 |
| 20260902133700 | 77 | 188 | 7.0 | 11.0 | 0.05 | 0.00 | 0.05 | 89 | 1015.7 |
| 20260902133201 | 79 | 186 | 4.0 | 6.0 | 0.00 | 0.00 | 0.05 | 87 | 1015.7 |
| 20260902132700 | 80 | 189 | 5.0 | 9.0 | 0.00 | 0.00 | 0.00 | 86 | 1015.6 |
| 20260902132201 | 80 | 138 | 3.0 | 5.0 | 0.00 | 0.00 | 0.00 | 88 | 1015.1 |
| 20260902131700 | 80 | 107 | 5.0 | 8.0 | 0.00 | 0.00 | 0.00 | 88 | 1014.9 |
| 20260902131200 | 80 | 101 | 6.0 | 9.0 | 0.00 | 0.00 | 0.00 | 89 | 1014.8 |
| 20260902130700 | 80 | 112 | 4.0 | 6.0 | 0.00 | 0.00 | 0.00 | 89 | 1014.8 |
| 20260902130201 | 79 | 106 | 6.0 | 9.0 | 0.00 | 0.00 | 0.00 | 90 | 1014.8 |
| 20260902125700 | 79 | 90 | 5.0 | 9.0 | 0.00 | 0.00 | 0.00 | 90 | 1014.8 |
| 20260902125202 | 79 | 70 | 9.0 | 12.0 | 0.00 | 0.00 | 0.00 | 90 | 1014.7 |
| 20260902124700 | 79 | 84 | 6.0 | 9.0 | 0.00 | 0.00 | 0.00 | 90 | 1014.8 |
| 20260902124200 | 79 | 97 | 7.0 | 9.0 | 0.00 | 0.00 | 0.00 | 90 | 1014.8 |
| 20260902123703 | 79 | 81 | 6.0 | 12.0 | 0.00 | 0.00 | 0.00 | 90 | 1014.8 |
| 20260902123205 | 79 | 74 | 5.0 | 8.0 | 0.00 | 0.00 | 0.00 | 90 | 1014.8 |
| 20260902122700 | 79 | 83 | 6.0 | 8.0 | 0.00 | 0.00 | 0.00 | 90 | 1014.8 |
| 20260902122200 | 79 | 86 | 6.0 | 9.0 | 0.00 | 0.00 | 0.00 | 90 | 1014.8 |
| 20260902121701 | 79 | 70 | 8.0 | 9.0 | 0.00 | 0.00 | 0.00 | 90 | 1014.7 |
| 20260902121201 | 79 | 92 | 5.0 | 5.0 | 0.00 | 0.00 | 0.00 | 90 | 1014.8 |
| 20260902120701 | 79 | 82 | 5.0 | 6.0 | 0.00 | 0.00 | 0.00 | 90 | 1014.7 |
| 20260902120203 | 79 | 101 | 4.0 | 5.0 | 0.00 | 0.00 | 0.00 | 90 | 1014.7 |
| 20260902115700 | 79 | 94 | 5.0 | 6.0 | 0.00 | 0.00 | 0.00 | 90 | 1014.7 |
| 20260902115200 | 79 | 89 | 6.0 | 7.0 | 0.00 | 0.00 | 0.00 | 90 | 1014.8 |
| 20260902114700 | 79 | 95 | 4.0 | 8.0 | 0.00 | 0.00 | 0.00 | 90 | 1014.8 |
| 20260902114200 | 79 | 86 | 6.0 | 8.0 | 0.00 | 0.00 | 0.00 | 90 | 1014.8 |
| 20260902113700 | 79 | 90 | 7.0 | 8.0 | 0.00 | 0.00 | 0.00 | 90 | 1014.7 |
| 20260902113200 | 79 | 105 | 4.0 | 5.0 | 0.00 | 0.00 | 0.00 | 90 | 1014.7 |
| 20260902112700 | 79 | 102 | 4.0 | 5.0 | 0.00 | 0.00 | 0.00 | 90 | 1014.7 |
| 20260902112201 | 79 | 82 | 6.0 | 9.0 | 0.00 | 0.00 | 0.00 | 90 | 1014.6 |
| 20260902111701 | 79 | 106 | 4.0 | 7.0 | 0.00 | 0.00 | 0.00 | 91 | 1014.6 |
| 20260902111200 | 79 | 94 | 5.0 | 7.0 | 0.00 | 0.00 | 0.00 | 91 | 1014.6 |
| 20260902110700 | 79 | 101 | 4.0 | 6.0 | 0.00 | 0.00 | 0.00 | 91 | 1014.5 |
| 20260902110200 | 79 | 94 | 4.0 | 5.0 | 0.00 | 0.00 | 0.00 | 91 | 1014.5 |
| 20260902105701 | 78 | 105 | 4.0 | 6.0 | 0.00 | 0.00 | 0.00 | 91 | 1014.5 |
| 20260902105201 | 78 | 101 | 4.0 | 5.0 | 0.00 | 0.00 | 0.00 | 91 | 1014.5 |
| 20260902104700 | 78 | 79 | 6.0 | 7.0 | 0.00 | 0.00 | 0.00 | 91 | 1014.5 |
| 20260902104202 | 78 | 97 | 3.0 | 5.0 | 0.00 | 0.00 | 0.00 | 91 | 1014.4 |
| 20260902103701 | 78 | 109 | 3.0 | 4.0 | 0.00 | 0.00 | 0.00 | 91 | 1014.4 |
| 20260902103200 | 78 | 107 | 4.0 | 6.0 | 0.00 | 0.00 | 0.00 | 91 | 1014.4 |
| 20260902102200 | 78 | 106 | 3.0 | 4.0 | 0.00 | 0.00 | 0.00 | 90 | 1014.4 |
| 20260902101700 | 78 | 111 | 4.0 | 5.0 | 0.00 | 0.00 | 0.00 | 90 | 1014.4 |
| 20260902101201 | 78 | 109 | 3.0 | 4.0 | 0.00 | 0.00 | 0.00 | 90 | 1014.5 |
| 20260902100700 | 78 | 81 | 5.0 | 7.0 | 0.00 | 0.00 | 0.00 | 90 | 1014.4 |
| 20260902100201 | 78 | 89 | 4.0 | 7.0 | 0.00 | 0.00 | 0.00 | 90 | 1014.5 |
| 20260902095200 | 78 | 84 | 4.0 | 6.0 | 0.00 | 0.00 | 0.00 | 90 | 1014.5 |
| 20260902094201 | 78 | 86 | 4.0 | 6.0 | 0.00 | 0.00 | 0.00 | 90 | 1014.5 |
| 20260902093700 | 78 | 85 | 4.0 | 5.0 | 0.00 | 0.00 | 0.00 | 90 | 1014.5 |
| 20260902093201 | 78 | 99 | 4.0 | 4.0 | 0.00 | 0.00 | 0.00 | 89 | 1014.5 |
| 20260902092702 | 79 | 117 | 3.0 | 4.0 | 0.00 | 0.00 | 0.00 | 89 | 1014.6 |
| 20260902092200 | 79 | 104 | 3.0 | 4.0 | 0.00 | 0.00 | 0.00 | 89 | 1014.6 |
| 20260902091700 | 79 | 96 | 4.0 | 4.0 | 0.00 | 0.00 | 0.00 | 89 | 1014.6 |
| 20260902091200 | 79 | 110 | 3.0 | 5.0 | 0.00 | 0.00 | 0.00 | 89 | 1014.5 |
| 20260902090700 | 79 | 97 | 4.0 | 6.0 | 0.00 | 0.00 | 0.00 | 89 | 1014.5 |
| 20260902090200 | 79 | 101 | 3.0 | 5.0 | 0.00 | 0.00 | 0.00 | 88 | 1014.4 |
| 20260902085700 | 79 | 100 | 3.0 | 4.0 | 0.00 | 0.00 | 0.00 | 88 | 1014.4 |
| 20260902084200 | 79 | 76 | 4.0 | 6.0 | 0.00 | 0.00 | 0.00 | 88 | 1014.5 |
| 20260902082659 | 79 | 106 | 4.0 | 6.0 | 0.00 | 0.00 | 0.00 | 88 | 1014.6 |
| 20260902082201 | 79 | 103 | 5.0 | 8.0 | 0.00 | 0.00 | 0.00 | 88 | 1014.6 |
| 20260902081701 | 79 | 108 | 3.0 | 5.0 | 0.00 | 0.00 | 0.00 | 87 | 1014.6 |
| 20260902081200 | 79 | 96 | 3.0 | 5.0 | 0.00 | 0.00 | 0.00 | 87 | 1014.6 |
| 20260902080707 | 79 | 113 | 4.0 | 7.0 | 0.00 | 0.00 | 0.00 | 87 | 1014.6 |
| 20260902075700 | 80 | 98 | 3.0 | 4.0 | 0.00 | 0.00 | 0.00 | 87 | 1014.6 |
| 20260902075200 | 80 | 121 | 4.0 | 5.0 | 0.00 | 0.00 | 0.00 | 87 | 1014.6 |
| 20260902074701 | 79 | 106 | 3.0 | 5.0 | 0.00 | 0.00 | 0.00 | 87 | 1014.5 |
| 20260902074200 | 79 | 102 | 4.0 | 6.0 | 0.00 | 0.00 | 0.00 | 87 | 1014.5 |
| 20260902073701 | 79 | 99 | 3.0 | 4.0 | 0.00 | 0.00 | 0.00 | 87 | 1014.6 |
| 20260902073200 | 79 | 103 | 3.0 | 4.0 | 0.00 | 0.00 | 0.00 | 86 | 1014.7 |
| 20260902072701 | 79 | 104 | 4.0 | 5.0 | 0.00 | 0.00 | 0.00 | 86 | 1014.7 |
| 20260902072200 | 79 | 112 | 4.0 | 5.0 | 0.00 | 0.00 | 0.00 | 86 | 1014.8 |
| 20260902071700 | 80 | 78 | 4.0 | 5.0 | 0.00 | 0.00 | 0.00 | 86 | 1014.8 |
| 20260902071200 | 80 | 107 | 6.0 | 6.0 | 0.00 | 0.00 | 0.00 | 86 | 1014.9 |
| 20260902070212 | 79 | 105 | 5.0 | 6.0 | 0.00 | 0.00 | 0.00 | 86 | 1014.9 |
| 20260902065700 | 79 | 94 | 3.0 | 3.0 | 0.00 | 0.00 | 0.00 | 86 | 1014.9 |
| 20260902065203 | 80 | 122 | 1.0 | 2.0 | 0.00 | 0.00 | 0.00 | 86 | 1014.9 |
| 20260902064701 | 80 | 120 | 1.0 | 3.0 | 0.00 | 0.00 | 0.00 | 86 | 1014.8 |
| 20260902064200 | 80 | 120 | 3.0 | 4.0 | 0.00 | 0.00 | 0.00 | 86 | 1014.7 |
| 20260902063700 | 80 | 119 | 3.0 | 5.0 | 0.00 | 0.00 | 0.00 | 85 | 1014.8 |
| 20260902063200 | 80 | 118 | 4.0 | 6.0 | 0.00 | 0.00 | 0.00 | 85 | 1014.9 |
| 20260902062700 | 80 | 114 | 4.0 | 5.0 | 0.00 | 0.00 | 0.00 | 85 | 1014.9 |
| 20260902062200 | 80 | 132 | 3.0 | 5.0 | 0.00 | 0.00 | 0.00 | 85 | 1015.0 |
| 20260902061700 | 80 | 123 | 4.0 | 5.0 | 0.00 | 0.00 | 0.00 | 85 | 1015.0 |
| 20260902061200 | 80 | 103 | 4.0 | 5.0 | 0.00 | 0.00 | 0.00 | 85 | 1015.1 |
| 20260902060700 | 80 | 95 | 4.0 | 4.0 | 0.00 | 0.00 | 0.00 | 85 | 1015.1 |
| 20260902060201 | 80 | 116 | 2.0 | 2.0 | 0.00 | 0.00 | 0.00 | 84 | 1015.2 |
| 20260902055701 | 80 | 130 | 4.0 | 8.0 | 0.00 | 0.00 | 0.00 | 84 | 1015.2 |
| 20260902055202 | 80 | 97 | 4.0 | 7.0 | 0.00 | 0.00 | 0.00 | 84 | 1015.1 |
| 20260902054701 | 80 | 148 | 3.0 | 5.0 | 0.00 | 0.00 | 0.00 | 84 | 1015.2 |
| 20260902054200 | 80 | 110 | 4.0 | 5.0 | 0.00 | 0.00 | 0.00 | 84 | 1015.2 |
| 20260902053700 | 80 | 104 | 3.0 | 4.0 | 0.00 | 0.00 | 0.00 | 84 | 1015.2 |
| 20260902053200 | 80 | 142 | 3.0 | 4.0 | 0.00 | 0.00 | 0.00 | 84 | 1015.3 |
| 20260902052700 | 80 | 114 | 4.0 | 4.0 | 0.00 | 0.00 | 0.00 | 83 | 1015.3 |
| 20260902052201 | 80 | 105 | 5.0 | 9.0 | 0.00 | 0.00 | 0.00 | 83 | 1015.3 |
| 20260902051700 | 80 | 105 | 1.0 | 2.0 | 0.00 | 0.00 | 0.00 | 83 | 1015.3 |
| 20260902051200 | 80 | 114 | 4.0 | 5.0 | 0.00 | 0.00 | 0.00 | 83 | 1015.3 |
| 20260902050700 | 80 | 124 | 3.0 | 4.0 | 0.00 | 0.00 | 0.00 | 83 | 1015.3 |
| 20260902050203 | 80 | 120 | 1.0 | 2.0 | 0.00 | 0.00 | 0.00 | 82 | 1015.2 |
| 20260902045700 | 80 | 129 | 1.0 | 2.0 | 0.00 | 0.00 | 0.00 | 82 | 1015.2 |
| 20260902045200 | 80 | 131 | 3.0 | 4.0 | 0.00 | 0.00 | 0.00 | 82 | 1015.2 |
| 20260902044701 | 80 | 118 | 3.0 | 5.0 | 0.00 | 0.00 | 0.00 | 82 | 1015.1 |
| 20260902044200 | 81 | 113 | 4.0 | 4.0 | 0.00 | 0.00 | 0.00 | 82 | 1015.1 |
| 20260902043701 | 81 | 121 | 3.0 | 4.0 | 0.00 | 0.00 | 0.00 | 81 | 1015.1 |
| 20260902043202 | 81 | 84 | 3.0 | 6.0 | 0.00 | 0.00 | 0.00 | 81 | 1015.0 |
| 20260902042701 | 81 | 118 | 3.0 | 3.0 | 0.00 | 0.00 | 0.00 | 81 | 1015.1 |
| 20260902042201 | 81 | 101 | 4.0 | 5.0 | 0.00 | 0.00 | 0.00 | 81 | 1015.3 |
| 20260902041701 | 81 | 112 | 4.0 | 5.0 | 0.00 | 0.00 | 0.00 | 80 | 1015.3 |
| 20260902041200 | 81 | 97 | 3.0 | 4.0 | 0.00 | 0.00 | 0.00 | 80 | 1015.3 |
| 20260902040702 | 81 | 131 | 4.0 | 5.0 | 0.00 | 0.00 | 0.00 | 80 | 1015.3 |
| 20260902040202 | 81 | 117 | 3.0 | 4.0 | 0.00 | 0.00 | 0.00 | 80 | 1015.4 |
| 20260902035700 | 81 | 93 | 3.0 | 4.0 | 0.00 | 0.00 | 0.00 | 79 | 1015.3 |
| 20260902035201 | 81 | 107 | 4.0 | 5.0 | 0.00 | 0.00 | 0.00 | 79 | 1015.2 |
| 20260902034700 | 81 | 154 | 3.0 | 5.0 | 0.00 | 0.00 | 0.00 | 79 | 1015.2 |
| 20260902034200 | 82 | 101 | 4.0 | 4.0 | 0.00 | 0.00 | 0.00 | 79 | 1015.1 |
| 20260902033700 | 82 | 99 | 4.0 | 5.0 | 0.00 | 0.00 | 0.00 | 78 | 1015.0 |
| 20260902033200 | 82 | 112 | 4.0 | 5.0 | 0.00 | 0.00 | 0.00 | 78 | 1015.0 |
| 20260902032701 | 82 | 103 | 3.0 | 5.0 | 0.00 | 0.00 | 0.00 | 78 | 1015.0 |
| 20260902032200 | 82 | 106 | 3.0 | 4.0 | 0.00 | 0.00 | 0.00 | 77 | 1014.9 |
| 20260902031701 | 82 | 109 | 2.0 | 4.0 | 0.00 | 0.00 | 0.00 | 77 | 1014.8 |
| 20260902031220 | 82 | 121 | 3.0 | 4.0 | 0.00 | 0.00 | 0.00 | 76 | 1014.7 |
| 20260902030701 | 82 | 119 | 5.0 | 7.0 | 0.00 | 0.00 | 0.00 | 76 | 1014.8 |
| 20260902030200 | 82 | 106 | 2.0 | 4.0 | 0.00 | 0.00 | 0.00 | 76 | 1014.8 |
| 20260902025701 | 82 | 112 | 4.0 | 7.0 | 0.00 | 0.00 | 0.00 | 75 | 1014.7 |
| 20260902025201 | 82 | 122 | 5.0 | 7.0 | 0.00 | 0.00 | 0.00 | 75 | 1014.7 |
| 20260902024700 | 82 | 128 | 3.0 | 4.0 | 0.00 | 0.00 | 0.00 | 75 | 1014.7 |
| 20260902024201 | 82 | 105 | 4.0 | 6.0 | 0.00 | 0.00 | 0.00 | 74 | 1014.7 |
| 20260902023702 | 83 | 117 | 3.0 | 4.0 | 0.00 | 0.00 | 0.00 | 74 | 1014.7 |
| 20260902023200 | 83 | 113 | 3.0 | 4.0 | 0.00 | 0.00 | 0.00 | 73 | 1014.6 |
| 20260902022700 | 83 | 109 | 4.0 | 5.0 | 0.00 | 0.00 | 0.00 | 72 | 1014.6 |
| 20260902022202 | 83 | 119 | 3.0 | 6.0 | 0.00 | 0.00 | 0.00 | 72 | 1014.5 |
| 20260902021701 | 83 | 128 | 2.0 | 4.0 | 0.00 | 0.00 | 0.00 | 71 | 1014.4 |
| 20260902021201 | 83 | 121 | 4.0 | 6.0 | 0.00 | 0.00 | 0.00 | 71 | 1014.3 |
| 20260902020703 | 83 | 122 | 2.0 | 4.0 | 0.00 | 0.00 | 0.00 | 71 | 1014.3 |
| 20260902020200 | 84 | 106 | 3.0 | 6.0 | 0.00 | 0.00 | 0.00 | 70 | 1014.2 |
| 20260902015701 | 84 | 119 | 4.0 | 7.0 | 0.00 | 0.00 | 0.00 | 70 | 1014.2 |
| 20260902015200 | 84 | 121 | 5.0 | 7.0 | 0.00 | 0.00 | 0.00 | 69 | 1014.1 |
| 20260902014701 | 84 | 118 | 5.0 | 9.0 | 0.00 | 0.00 | 0.00 | 69 | 1014.0 |
| 20260902014200 | 84 | 97 | 3.0 | 5.0 | 0.00 | 0.00 | 0.00 | 69 | 1013.9 |
| 20260902013700 | 84 | 117 | 4.0 | 6.0 | 0.00 | 0.00 | 0.00 | 69 | 1013.9 |
| 20260902013200 | 84 | 101 | 4.0 | 5.0 | 0.00 | 0.00 | 0.00 | 68 | 1013.8 |
| 20260902012700 | 84 | 103 | 4.0 | 8.0 | 0.00 | 0.00 | 0.00 | 68 | 1013.8 |
| 20260902012200 | 84 | 119 | 4.0 | 6.0 | 0.00 | 0.00 | 0.00 | 69 | 1013.7 |
| 20260902011700 | 84 | 93 | 2.0 | 4.0 | 0.00 | 0.00 | 0.00 | 69 | 1013.7 |
| 20260902011200 | 84 | 106 | 2.0 | 4.0 | 0.00 | 0.00 | 0.00 | 69 | 1013.7 |
| 20260902010702 | 84 | 119 | 2.0 | 3.0 | 0.00 | 0.00 | 0.00 | 69 | 1013.7 |
| 20260902010201 | 85 | 112 | 2.0 | 4.0 | 0.00 | 0.00 | 0.00 | 68 | 1013.7 |
| 20260902005700 | 85 | 104 | 3.0 | 4.0 | 0.00 | 0.00 | 0.00 | 67 | 1013.8 |
| 20260902005200 | 85 | 110 | 3.0 | 4.0 | 0.00 | 0.00 | 0.00 | 67 | 1013.9 |
| 20260902004703 | 85 | 123 | 4.0 | 7.0 | 0.00 | 0.00 | 0.00 | 66 | 1014.0 |
| 20260902004200 | 85 | 105 | 5.0 | 9.0 | 0.00 | 0.00 | 0.00 | 66 | 1014.0 |
| 20260902003701 | 85 | 111 | 3.0 | 5.0 | 0.00 | 0.00 | 0.00 | 66 | 1014.1 |
| 20260902003200 | 86 | 100 | 5.0 | 8.0 | 0.00 | 0.00 | 0.00 | 66 | 1014.1 |
| 20260902002701 | 86 | 122 | 4.0 | 7.0 | 0.00 | 0.00 | 0.00 | 66 | 1014.2 |
| 20260902002200 | 86 | 96 | 5.0 | 7.0 | 0.00 | 0.00 | 0.00 | 66 | 1014.2 |
| 20260902001700 | 86 | 113 | 6.0 | 10.0 | 0.00 | 0.00 | 0.00 | 65 | 1014.3 |
| 20260902001201 | 86 | 103 | 2.0 | 5.0 | 0.00 | 0.00 | 0.00 | 65 | 1014.3 |
| 20260902000710 | 87 | 109 | 6.0 | 8.0 | 0.00 | 0.00 | 0.00 | 64 | 1014.3 |
| 20260902000200 | 87 | 118 | 4.0 | 8.0 | 0.00 | 0.00 | 0.00 | 64 | 1014.3 |
| 20260901235702 | 87 | 107 | 4.0 | 6.0 | 0.00 | 0.00 | 0.00 | 63 | 1014.4 |
| 20260901235200 | 88 | 166 | 5.0 | 8.0 | 0.00 | 0.00 | 0.00 | 62 | 1014.4 |
| 20260901234701 | 88 | 98 | 3.0 | 7.0 | 0.00 | 0.00 | 0.00 | 63 | 1014.2 |
| 20260901234200 | 88 | 153 | 4.0 | 6.0 | 0.00 | 0.00 | 0.00 | 64 | 1014.2 |
| 20260901233700 | 88 | 151 | 3.0 | 4.0 | 0.00 | 0.00 | 0.00 | 64 | 1014.2 |
| 20260901233201 | 87 | 139 | 2.0 | 4.0 | 0.00 | 0.00 | 0.00 | 64 | 1014.1 |
| 20260901232700 | 88 | 167 | 4.0 | 7.0 | 0.00 | 0.00 | 0.00 | 64 | 1014.1 |
| 20260901232202 | 87 | 107 | 5.0 | 8.0 | 0.00 | 0.00 | 0.00 | 64 | 1014.1 |
| 20260901231700 | 87 | 120 | 4.0 | 6.0 | 0.00 | 0.00 | 0.00 | 64 | 1014.0 |
| 20260901231200 | 87 | 159 | 2.0 | 4.0 | 0.00 | 0.00 | 0.00 | 65 | 1014.0 |
| 20260901230701 | 87 | 125 | 5.0 | 8.0 | 0.00 | 0.00 | 0.00 | 65 | 1013.9 |
| 20260901230200 | 87 | 121 | 4.0 | 5.0 | 0.00 | 0.00 | 0.00 | 65 | 1014.0 |
| 20260901225700 | 87 | 152 | 4.0 | 5.0 | 0.00 | 0.00 | 0.00 | 65 | 1014.0 |
| 20260901225200 | 87 | 136 | 4.0 | 6.0 | 0.00 | 0.00 | 0.00 | 65 | 1014.0 |
| 20260901224700 | 87 | 128 | 4.0 | 5.0 | 0.00 | 0.00 | 0.00 | 65 | 1014.0 |
| 20260901224200 | 87 | 114 | 3.0 | 4.0 | 0.00 | 0.00 | 0.00 | 66 | 1014.1 |
| 20260901223701 | 87 | 168 | 4.0 | 6.0 | 0.00 | 0.00 | 0.00 | 66 | 1014.0 |
| 20260901223201 | 87 | 110 | 5.0 | 7.0 | 0.00 | 0.00 | 0.00 | 66 | 1014.1 |
| 20260901222700 | 87 | 138 | 4.0 | 6.0 | 0.00 | 0.00 | 0.00 | 68 | 1014.1 |
| 20260901222200 | 87 | 157 | 3.0 | 8.0 | 0.00 | 0.00 | 0.00 | 68 | 1014.1 |
| 20260901221701 | 87 | 160 | 5.0 | 13.0 | 0.00 | 0.00 | 0.00 | 68 | 1014.1 |
| 20260901221200 | 87 | 131 | 5.0 | 9.0 | 0.00 | 0.00 | 0.00 | 68 | 1014.1 |
| 20260901220700 | 86 | 160 | 6.0 | 9.0 | 0.00 | 0.00 | 0.00 | 69 | 1014.2 |
| 20260901220200 | 86 | 130 | 3.0 | 6.0 | 0.00 | 0.00 | 0.00 | 69 | 1014.2 |
| 20260901215701 | 86 | 173 | 7.0 | 9.0 | 0.00 | 0.00 | 0.00 | 69 | 1014.1 |
| 20260901215200 | 86 | 164 | 7.0 | 11.0 | 0.00 | 0.00 | 0.00 | 69 | 1014.1 |
| 20260901214700 | 86 | 123 | 4.0 | 7.0 | 0.00 | 0.00 | 0.00 | 69 | 1014.3 |
| 20260901214200 | 87 | 142 | 7.0 | 13.0 | 0.00 | 0.00 | 0.00 | 69 | 1014.2 |
| 20260901213700 | 87 | 170 | 5.0 | 7.0 | 0.00 | 0.00 | 0.00 | 69 | 1014.3 |
| 20260901213200 | 87 | 145 | 4.0 | 7.0 | 0.00 | 0.00 | 0.00 | 69 | 1014.3 |
| 20260901212700 | 87 | 165 | 8.0 | 12.0 | 0.00 | 0.00 | 0.00 | 68 | 1014.3 |
| 20260901212200 | 88 | 152 | 5.0 | 10.0 | 0.00 | 0.00 | 0.00 | 67 | 1014.3 |
| 20260901211700 | 88 | 175 | 9.0 | 14.0 | 0.00 | 0.00 | 0.00 | 65 | 1014.2 |
| 20260901211201 | 89 | 174 | 7.0 | 13.0 | 0.00 | 0.00 | 0.00 | 64 | 1014.3 |
| 20260901210700 | 90 | 190 | 8.0 | 11.0 | 0.00 | 0.00 | 0.00 | 63 | 1014.2 |
| 20260901210200 | 92 | 160 | 8.0 | 12.0 | 0.00 | 0.00 | 0.00 | 60 | 1014.2 |
| 20260901205700 | 93 | 148 | 8.0 | 12.0 | 0.00 | 0.00 | 0.00 | 54 | 1013.9 |
| 20260901205201 | 94 | 134 | 5.0 | 8.0 | 0.00 | 0.00 | 0.00 | 52 | 1013.8 |
| 20260901204701 | 94 | 149 | 4.0 | 8.0 | 0.00 | 0.00 | 0.00 | 53 | 1013.8 |
| 20260901204200 | 95 | 106 | 6.0 | 9.0 | 0.00 | 0.00 | 0.00 | 52 | 1013.9 |
| 20260901203702 | 96 | 99 | 6.0 | 9.0 | 0.00 | 0.00 | 0.00 | 50 | 1013.7 |
| 20260901203201 | 95 | 94 | 8.0 | 11.0 | 0.00 | 0.00 | 0.00 | 49 | 1013.7 |
| 20260901202700 | 95 | 153 | 5.0 | 8.0 | 0.00 | 0.00 | 0.00 | 49 | 1014.0 |
| 20260901202201 | 94 | 160 | 9.0 | 13.0 | 0.00 | 0.00 | 0.00 | 51 | 1014.0 |
| 20260901201700 | 94 | 113 | 3.0 | 6.0 | 0.00 | 0.00 | 0.00 | 51 | 1014.1 |
| 20260901201200 | 94 | 100 | 9.0 | 11.0 | 0.00 | 0.00 | 0.00 | 51 | 1014.2 |
| 20260901200700 | 94 | 106 | 7.0 | 11.0 | 0.00 | 0.00 | 0.00 | 50 | 1014.1 |
| 20260901200200 | 95 | 105 | 7.0 | 11.0 | 0.00 | 0.00 | 0.00 | 49 | 1014.2 |
| 20260901195703 | 94 | 143 | 4.0 | 7.0 | 0.00 | 0.00 | 0.00 | 50 | 1014.3 |
| 20260901195203 | 94 | 114 | 8.0 | 10.0 | 0.00 | 0.00 | 0.00 | 49 | 1014.4 |
| 20260901194700 | 94 | 97 | 9.0 | 14.0 | 0.00 | 0.00 | 0.00 | 48 | 1014.6 |
| 20260901194200 | 95 | 101 | 6.0 | 9.0 | 0.00 | 0.00 | 0.00 | 48 | 1014.6 |
| 20260901193703 | 94 | 91 | 10.0 | 14.0 | 0.00 | 0.00 | 0.00 | 49 | 1014.6 |
| 20260901193201 | 94 | 83 | 9.0 | 13.0 | 0.00 | 0.00 | 0.00 | 49 | 1014.6 |
| 20260901192700 | 94 | 63 | 7.0 | 12.0 | 0.00 | 0.00 | 0.00 | 50 | 1014.6 |
| 20260901192200 | 94 | 103 | 5.0 | 8.0 | 0.00 | 0.00 | 0.00 | 50 | 1014.7 |
| 20260901191700 | 94 | 55 | 3.0 | 4.0 | 0.00 | 0.00 | 0.00 | 50 | 1014.6 |
| 20260901191205 | 94 | 68 | 6.0 | 10.0 | 0.00 | 0.00 | 0.00 | 50 | 1014.6 |
| 20260901190700 | 94 | 97 | 10.0 | 15.0 | 0.00 | 0.00 | 0.00 | 50 | 1014.5 |
| 20260901190201 | 94 | 119 | 6.0 | 9.0 | 0.00 | 0.00 | 0.00 | 50 | 1014.7 |
| 20260901185701 | 94 | 127 | 5.0 | 7.0 | 0.00 | 0.00 | 0.00 | 51 | 1014.8 |
| 20260901185200 | 94 | 67 | 7.0 | 9.0 | 0.00 | 0.00 | 0.00 | 51 | 1014.8 |
| 20260901184701 | 94 | 90 | 9.0 | 13.0 | 0.00 | 0.00 | 0.00 | 50 | 1014.7 |
| 20260901184200 | 94 | 63 | 7.0 | 9.0 | 0.00 | 0.00 | 0.00 | 50 | 1014.9 |
| 20260901183701 | 94 | 111 | 6.0 | 9.0 | 0.00 | 0.00 | 0.00 | 50 | 1015.0 |
| 20260901183201 | 93 | 81 | 5.0 | 8.0 | 0.00 | 0.00 | 0.00 | 52 | 1015.1 |
| 20260901182700 | 93 | 100 | 8.0 | 11.0 | 0.00 | 0.00 | 0.00 | 53 | 1015.2 |
| 20260901182201 | 93 | 160 | 3.0 | 5.0 | 0.00 | 0.00 | 0.00 | 53 | 1015.2 |
| 20260901181700 | 93 | 99 | 6.0 | 10.0 | 0.00 | 0.00 | 0.00 | 52 | 1015.3 |
| 20260901181200 | 92 | 148 | 4.0 | 7.0 | 0.00 | 0.00 | 0.00 | 53 | 1015.3 |
| 20260901180701 | 93 | 80 | 7.0 | 13.0 | 0.00 | 0.00 | 0.00 | 53 | 1015.3 |
| 20260901180201 | 93 | 111 | 5.0 | 9.0 | 0.00 | 0.00 | 0.00 | 53 | 1015.5 |
| 20260901175700 | 92 | 96 | 1.0 | 3.0 | 0.00 | 0.00 | 0.00 | 54 | 1015.6 |
| 20260901175201 | 92 | 113 | 6.0 | 10.0 | 0.00 | 0.00 | 0.00 | 55 | 1015.7 |
| 20260901174700 | 92 | 156 | 6.0 | 9.0 | 0.00 | 0.00 | 0.00 | 54 | 1015.8 |
| 20260901174200 | 92 | 205 | 2.0 | 5.0 | 0.00 | 0.00 | 0.00 | 55 | 1015.8 |
| 20260901173701 | 92 | 101 | 6.0 | 9.0 | 0.00 | 0.00 | 0.00 | 54 | 1016.0 |
| 20260901173201 | 92 | 78 | 4.0 | 8.0 | 0.00 | 0.00 | 0.00 | 55 | 1016.0 |
| 20260901172702 | 91 | 156 | 5.0 | 11.0 | 0.00 | 0.00 | 0.00 | 56 | 1016.1 |
| 20260901172200 | 91 | 175 | 4.0 | 6.0 | 0.00 | 0.00 | 0.00 | 57 | 1016.2 |
| 20260901171702 | 91 | 88 | 6.0 | 10.0 | 0.00 | 0.00 | 0.00 | 56 | 1016.3 |
| 20260901171200 | 90 | 57 | 5.0 | 6.0 | 0.00 | 0.00 | 0.00 | 57 | 1016.3 |
| 20260901170701 | 90 | 91 | 8.0 | 13.0 | 0.00 | 0.00 | 0.00 | 56 | 1016.4 |
| 20260901170201 | 90 | 99 | 3.0 | 6.0 | 0.00 | 0.00 | 0.00 | 57 | 1016.5 |
| 20260901165700 | 89 | 69 | 6.0 | 10.0 | 0.00 | 0.00 | 0.00 | 59 | 1016.6 |
| 20260901165200 | 90 | 88 | 4.0 | 6.0 | 0.00 | 0.00 | 0.00 | 59 | 1016.7 |
| 20260901164700 | 90 | 88 | 5.0 | 8.0 | 0.00 | 0.00 | 0.00 | 60 | 1016.9 |
| 20260901164201 | 89 | 62 | 4.0 | 6.0 | 0.00 | 0.00 | 0.00 | 60 | 1017.0 |
| 20260901163702 | 89 | 115 | 5.0 | 8.0 | 0.00 | 0.00 | 0.00 | 61 | 1017.1 |
| 20260901163200 | 88 | 111 | 3.0 | 8.0 | 0.00 | 0.00 | 0.00 | 62 | 1017.2 |
| 20260901162700 | 88 | 82 | 3.0 | 5.0 | 0.00 | 0.00 | 0.00 | 63 | 1017.3 |
| 20260901162200 | 88 | 100 | 4.0 | 7.0 | 0.00 | 0.00 | 0.00 | 62 | 1017.3 |
| 20260901161701 | 89 | 84 | 4.0 | 6.0 | 0.00 | 0.00 | 0.00 | 62 | 1017.2 |
| 20260901161201 | 88 | 103 | 6.0 | 10.0 | 0.00 | 0.00 | 0.00 | 62 | 1017.2 |
| 20260901160700 | 88 | 81 | 3.0 | 4.0 | 0.00 | 0.00 | 0.00 | 64 | 1017.2 |
| 20260901160200 | 88 | 109 | 6.0 | 10.0 | 0.00 | 0.00 | 0.00 | 63 | 1017.2 |
| 20260901155700 | 88 | 76 | 5.0 | 8.0 | 0.00 | 0.00 | 0.00 | 63 | 1017.2 |